Zurück zum Katalog

STARLINK-11641

AktivKommunikationVLEO
NORAD 63268·PAYLOAD·🇺🇸 United States

Gestartet Mar 15, 2025 von Cape Canaveral Space Force Station

Loading…

Nächste Überflüge (nächste 24 Stunden)

TLE

AktuellSource: CelesTrak SupGP

Epoche: Sep 15, 2026, 03:14 UTC

1 63268C 25053D   26258.13520833 -.00099038  00000+0 -76890-3 0  2589
2 63268  43.0013  49.9728 0001773 271.0825 251.0548 15.70897168    18

Verfolge STARLINK-11641 in Echtzeit mit AllMySat

Download on the App Store